Location: Chimay
(50.0486°N, 4.3171°E)
Time: 10:06:40
(UTC+00:00)

SL-16 R/B - Pass Details

Date: 08 August 2020
Orbit: 985 x 1007 km, 99.5° (Epoch: 20 September)

Event Time Altitude Azimuth Distance (km) Brightness Sun altitude
Exits shadow 23:46:15 11° 111° (ESE) 2,738 4.6 -24.2°
Maximum altitude 23:51:14 28° 56° (NE) 1,804 4.2 -24.2°
Drops below altitude 10° 23:56:23 10° 1° (N) 2,790 6.0 -24.2°
Sets 23:59:12 0° 350° (N) 3,740 6.9 -24.1°
